Location: Frankfurt+am+Main
(50.1100°N, 8.4815°E)
Time: 03:58:19
(UTC+01:00)

ISS - Pass Details

Date: 11 February 2018
Orbit: 402 x 407 km, 51.6° (Epoch: 23 February)

Event Time Altitude Azimuth Distance (km) Brightness Sun altitude
Rises 19:24:09 0° 281° (WNW) 2,321 1.6 -17.6°
Reaches altitude 10° 19:26:55 10° 256° (WSW) 1,457 0.2 -18.0°
Maximum altitude 19:28:45 14° 222° (SW) 1,223 -0.9 -18.3°
Drops below altitude 10° 19:30:36 10° 187° (S) 1,453 -1.0 -18.6°
Enters shadow 19:31:38 - 174° (S) 1,733 -0.7 -18.8°
